Location: Kershaw
(34.5481°N, 80.5823°W)
Time: 00:36:34
(UTC+00:00)

Altair - Pass Details

Date: 07 October 2022
Orbit: 1501 x 1682 km, 47.2° (Epoch: 05 December)

Event Time Altitude Azimuth Distance (km) Brightness Sun altitude
Exits shadow 08:52:24 63° 240° (WSW) 1,743 7.4 -31.2°
Maximum altitude 08:54:21 87° 324° (NW) 1,606 7.4 -30.9°
Drops below altitude 10° 09:04:20 10° 54° (NE) 3,889 10.4 -28.9°
Sets 09:07:31 0° 55° (NE) 4,896 11.2 -28.2°
